Waukesha, WI

9:30 PM CST on February 19, 2017 (GMT -0600)
Waukesha County

Weather History for KUES - January, 2013

Change the Weather History Date:

Sunday, January 13, 2013

  Actual Average Record
Temperature  
Mean Temperature 18 °F -  
Max Temperature 23 °F 27 °F 55 °F (1961)
Min Temperature 12 °F 13 °F -11 °F (1963)
Degree Days  
Heating Degree Days 48    
Moisture  
Dew Point 12 °F    
Average Humidity 80    
Maximum Humidity 93    
Minimum Humidity 73    
Precipitation  
Precipitation 0.03 in - - ()
Sea Level Pressure  
Sea Level Pressure 30.03 in    
Wind  
Wind Speed 12 mph (WNW)    
Max Wind Speed 18 mph    
Max Gust Speed 25 mph    
Visibility 9 miles    
Events Snow    
Averages and records for this station are not official NWS values.
T = Trace of Precipitation, MM = Missing Value Source: NWS Daily Summary

Daily Weather History Graph

Daily Weather History Graph

Search for Another Location

Airport or City:

Trip Planner

Search our weather history database for the weather conditions in past years. The results will help you decide how hot, cold, wet, or windy it might be!

Date:

Astronomy

Jan. 13, 2013 Rise Set
Actual Time 7:22 AM CST 4:41 PM CST
Civil Twilight 6:50 AM CST 5:13 PM CST
Nautical Twilight 6:15 AM CST 5:48 PM CST
Astronomical Twilight 5:41 AM CST 6:22 PM CST
Moon 8:16 AM CST (1/13) 7:24 PM CST (1/13)
Length of Visible Light 10h 22m
Length of Day
9h 19m
Waxing Crescent, 5% of the Moon is Illuminated
Jan 13
Waxing Crescent
Jan 18
First Quarter
Jan 26
Full
Feb 3
Last Quarter
Feb 10
New

Hourly Weather History & Observations

Time (CST) Temp. Windchill Dew Point Humidity Pressure Visibility Wind Dir Wind Speed Gust Speed Precip Events Conditions
12:15 AM 23.0 °F 11.7 °F 21.2 °F 93% 29.92 in 5.0 mi NW 11.5 mph - 0.01 in   Overcast
12:55 AM 23.0 °F 12.4 °F 21.2 °F 93% 29.92 in 4.0 mi NW 10.4 mph - 0.02 in Snow Light Snow
1:15 AM 23.0 °F 10.6 °F 21.2 °F 93% 29.91 in 5.0 mi NW 13.8 mph - 0.01 in Snow Light Snow
1:35 AM 23.0 °F 12.4 °F 21.2 °F 93% 29.91 in 4.0 mi NNW 10.4 mph - 0.01 in Snow Light Snow
1:55 AM 23.0 °F 12.4 °F 19.4 °F 86% 29.94 in 7.0 mi NW 10.4 mph - 0.01 in   Overcast
2:15 AM 21.2 °F 11.7 °F 19.4 °F 93% 29.93 in 7.0 mi NW 8.1 mph - N/A   Overcast
3:35 AM 21.2 °F 10.1 °F 19.4 °F 93% 29.94 in 10.0 mi WNW 10.4 mph - N/A   Overcast
3:55 AM 21.2 °F 10.1 °F 19.4 °F 93% 29.94 in 10.0 mi NW 10.4 mph 16.1 mph N/A   Overcast
4:35 AM 21.2 °F 10.9 °F 17.6 °F 86% 29.88 in 10.0 mi NNW 9.2 mph - N/A   Overcast
5:45 AM 19.4 °F 8.6 °F 15.8 °F 86% 29.96 in 10.0 mi WNW 9.2 mph - N/A   Mostly Cloudy
6:45 AM 19.4 °F 8.6 °F 14.0 °F 80% 29.96 in 10.0 mi West 9.2 mph - N/A   Overcast
7:45 AM 19.4 °F 7.2 °F 14.0 °F 80% 29.97 in 10.0 mi WNW 11.5 mph - N/A   Overcast
8:45 AM 17.6 °F 4.3 °F 12.2 °F 79% 30.00 in 10.0 mi WNW 12.7 mph - N/A   Overcast
9:45 AM 17.6 °F 4.3 °F 12.2 °F 79% 30.01 in 10.0 mi WNW 12.7 mph - N/A   Overcast
10:45 AM 17.6 °F 5.0 °F 10.4 °F 73% 29.99 in 10.0 mi NW 11.5 mph - N/A   Overcast
11:45 AM 17.6 °F 5.7 °F 10.4 °F 73% 29.98 in 10.0 mi West 10.4 mph - N/A   Overcast
12:45 PM 17.6 °F 2.7 °F 10.4 °F 73% 29.97 in 10.0 mi WNW 16.1 mph - N/A   Overcast
1:45 PM 17.6 °F 5.0 °F 10.4 °F 73% 29.98 in 10.0 mi WNW 11.5 mph 17.3 mph N/A   Mostly Cloudy
2:45 PM 17.6 °F 6.4 °F 10.4 °F 73% 30.00 in 10.0 mi West 9.2 mph - N/A   Overcast
3:45 PM 17.6 °F 3.7 °F 10.4 °F 73% 30.00 in 10.0 mi West 13.8 mph - N/A   Overcast
4:30 PM 15.8 °F 2.7 °F 10.4 °F 79% 30.02 in 10.0 mi West 11.5 mph - N/A   Overcast
4:45 PM 17.6 °F 5.0 °F 10.4 °F 73% 30.02 in 10.0 mi West 11.5 mph - N/A   Overcast
6:45 PM 15.8 °F 2.7 °F 8.6 °F 73% 30.08 in 10.0 mi West 11.5 mph - N/A   Overcast
7:45 PM 15.8 °F 2.7 °F 8.6 °F 73% 30.10 in 10.0 mi West 11.5 mph 23.0 mph N/A   Overcast
8:15 PM 14.0 °F -2.5 °F 8.6 °F 79% 30.11 in 10.0 mi West 17.3 mph 24.2 mph N/A   Overcast
8:35 PM 14.0 °F -2.0 °F 6.8 °F 73% 30.12 in 10.0 mi West 16.1 mph 24.2 mph N/A   Overcast
8:45 PM 12.2 °F -1.8 °F 6.8 °F 79% 30.12 in 10.0 mi West 11.5 mph 23.0 mph N/A   Overcast
8:55 PM 14.0 °F -2.0 °F 6.8 °F 73% 30.12 in 10.0 mi West 16.1 mph - N/A   Overcast
9:35 PM 12.2 °F -3.7 °F 5.0 °F 73% 30.14 in 10.0 mi West 15.0 mph - N/A   Overcast
9:55 PM 12.2 °F -3.7 °F 5.0 °F 73% 30.15 in 10.0 mi West 15.0 mph 20.7 mph N/A   Overcast
10:15 PM 12.2 °F -5.3 °F 5.0 °F 73% 30.15 in 10.0 mi West 18.4 mph 25.3 mph N/A   Overcast
10:35 PM 12.2 °F -2.5 °F 5.0 °F 73% 30.15 in 10.0 mi West 12.7 mph 21.9 mph N/A   Overcast
10:55 PM 12.2 °F -5.3 °F 5.0 °F 73% 30.16 in 10.0 mi West 18.4 mph 24.2 mph N/A   Overcast
11:15 PM 12.2 °F -4.3 °F 5.0 °F 73% 30.17 in 10.0 mi West 16.1 mph 25.3 mph N/A   Overcast
11:35 PM 12.2 °F -2.5 °F 6.8 °F 79% 30.17 in 10.0 mi West 12.7 mph 20.7 mph N/A   Overcast
11:55 PM 12.2 °F -4.3 °F 6.8 °F 79% 30.18 in 10.0 mi WNW 16.1 mph 24.2 mph N/A   Overcast